Location: Ferchesar
(52.6477°N, 12.4298°E)
Time: 20:50:11
(UTC+01:00)

Explorer 7 - All Passes

Search period start: 28 February 2021 00:00
Search period end: 10 March 2021 00:00
Orbit: 484 x 677 km, 50.3° (Epoch: 28 February)

Date Brightness Start Highest point End Pass type
(mag) Time Alt. Az. Time Alt. Az. Time Alt. Az.
28 Feb - 15:31:35 10° SSW 15:35:18 26° SSE 15:38:51 10° E daylight
28 Feb - 17:11:07 10° WSW 17:15:22 56° S 17:19:23 10° E daylight
28 Feb - 18:51:33 10° W 18:55:41 59° S 18:59:33 10° ESE visible
28 Feb - 20:32:15 10° W 20:35:42 27° SSW 20:39:01 10° SSE visible
01 Mar - 13:58:40 10° SSE 14:00:00 11° SE 14:01:19 10° ESE daylight
01 Mar - 15:35:38 10° SW 15:39:40 34° SSE 15:43:30 10° E daylight
01 Mar - 17:15:34 10° WSW 17:19:51 62° S 17:23:53 10° E daylight
01 Mar - 18:56:05 10° W 19:00:09 52° SSW 19:03:59 10° ESE visible
01 Mar - 20:36:59 10° W 20:40:01 21° SW 20:42:56 10° SSE visible
02 Mar - 14:01:26 10° S 14:04:14 16° SE 14:06:58 10° ESE daylight
02 Mar - 15:39:51 10° SW 15:44:05 43° SSE 15:48:05 10° E daylight
02 Mar - 17:20:03 10° W 17:24:21 64° S 17:28:23 10° E daylight
02 Mar - 19:00:36 10° W 19:04:35 43° SSW 19:08:19 10° SE visible
02 Mar - 20:41:59 10° WSW 20:44:17 15° SW 20:46:31 10° S visible
03 Mar - 14:05:00 10° SSW 14:08:32 22° SE 14:11:54 10° E daylight
03 Mar - 15:44:10 10° WSW 15:48:31 51° SSE 15:52:37 10° E daylight
03 Mar - 17:24:32 10° W 17:28:50 63° S 17:32:51 10° ESE daylight
03 Mar - 19:05:11 10° W 19:08:58 34° SSW 19:12:34 10° SE visible
03 Mar - 20:48:12 10° SW 20:48:29 10° SW 20:48:46 10° SW visible
04 Mar - 14:08:54 10° SSW 14:12:52 29° SSE 14:16:38 10° E daylight
04 Mar - 15:48:35 10° WSW 15:52:59 59° S 15:57:08 10° E daylight
04 Mar - 17:29:03 10° W 17:33:18 58° S 17:37:18 10° ESE daylight
04 Mar - 19:09:49 10° W 19:13:19 26° SSW 19:16:39 10° SSE visible
05 Mar - 12:35:22 10° SSE 12:37:30 13° SE 12:39:36 10° ESE daylight
05 Mar - 14:13:00 10° SW 14:17:15 37° SSE 14:21:16 10° E daylight
05 Mar - 15:53:02 10° WSW 15:57:29 64° S 16:01:38 10° E daylight
05 Mar - 17:33:34 10° W 17:37:46 50° SSW 17:41:42 10° ESE daylight
05 Mar - 19:14:35 10° W 19:17:37 20° SW 19:20:32 10° SSE visible
06 Mar - 12:38:33 10° S 12:41:45 18° SE 12:44:51 10° E daylight
06 Mar - 14:17:14 10° SW 14:21:39 46° SSE 14:25:50 10° E daylight
06 Mar - 15:57:31 10° W 16:01:58 65° S 16:06:07 10° E daylight
06 Mar - 17:38:06 10° W 17:42:11 42° SSW 17:46:02 10° SE daylight
06 Mar - 19:19:39 10° WSW 19:21:51 14° SW 19:24:01 10° S visible
07 Mar - 12:42:14 10° SSW 12:46:02 25° SSE 12:49:43 10° E daylight
07 Mar - 14:21:35 10° WSW 14:26:06 54° SSE 14:30:20 10° E daylight
07 Mar - 16:02:01 10° W 16:06:27 63° S 16:10:35 10° ESE daylight
07 Mar - 17:42:41 10° W 17:46:34 33° SSW 17:50:14 10° SE daylight
08 Mar - 11:10:25 10° SE 11:10:46 10° SE 11:11:08 10° SE daylight
08 Mar - 12:46:12 10° SW 12:50:23 32° SSE 12:54:23 10° E daylight
08 Mar - 14:26:00 10° WSW 14:30:34 61° S 14:34:51 10° E daylight
08 Mar - 16:06:31 10° W 16:10:55 57° SSW 16:15:01 10° ESE daylight
08 Mar - 17:47:20 10° W 17:50:54 25° SSW 17:54:17 10° SSE daylight
09 Mar - 11:12:18 10° S 11:14:59 15° SE 11:17:35 10° ESE daylight
09 Mar - 12:50:21 10° SW 12:54:46 40° SSE 12:58:59 10° E daylight
09 Mar - 14:30:28 10° WSW 14:35:02 65° S 14:39:21 10° E daylight
09 Mar - 16:11:01 10° W 16:15:21 49° SSW 16:19:24 10° ESE daylight
09 Mar - 17:52:08 10° W 17:55:11 19° SW 17:58:05 10° S daylight
